Theta_e
343 348 360 361 363 363 362 361 363 365 366 366 365 363 362 363 362 363 363 363 362 360 363 362 360 359 360 361 359 359 359 360 360 360 361 360 360 360 360 360 358 354 359
347 351 361 363 361 362 363 362 363 364 364 364 364 364 365 364 363 363 363 363 362 360 362 360 360 360 358 361 361 361 360 360 360 360 360 360 360 360 359 359 359 355 358
350 354 356 363 363 362 363 363 362 364 363 364 363 365 364 363 363 363 363 362 362 361 360 360 360 361 360 360 361 361 362 360 361 360 360 357 357 359 359 359 359 358 358
354 354 357 362 365 362 362 363 363 363 364 364 364 365 364 364 363 362 362 361 362 361 362 361 361 360 359 360 361 361 360 359 359 359 355 354 354 359 358 359 358 358 358
353 354 356 363 365 363 362 363 364 364 364 364 364 364 365 364 364 363 362 361 361 361 361 361 361 359 358 357 358 359 359 359 357 352 352 355 357 358 358 357 358 358 357
354 354 359 362 364 363 362 362 363 363 364 363 363 363 363 362 362 362 363 363 361 359 358 358 358 357 357 357 356 355 355 358 354 349 352 357 356 359 359 358 359 358 358
354 354 356 364 362 362 362 363 362 363 363 363 362 362 363 362 363 360 358 357 358 359 360 358 357 356 355 355 354 354 358 358 349 349 351 354 354 361 359 359 358 359 358
354 353 355 362 362 362 362 361 362 362 362 362 362 363 361 361 362 360 358 358 358 357 357 358 357 357 356 356 356 356 359 358 349 351 353 355 358 360 359 359 359 359 359
355 353 352 356 357 361 361 362 361 361 362 362 362 362 362 360 359 359 359 358 359 358 358 356 356 355 355 355 356 356 357 357 348 351 354 354 358 360 359 359 359 358 358
352 352 352 352 352 352 354 360 361 361 361 361 361 360 359 359 360 359 360 358 357 357 357 357 356 356 356 355 355 353 358 356 350 352 354 356 357 358 358 359 358 358 357
349 350 350 349 350 352 354 357 359 361 360 359 359 359 357 354 353 356 357 359 359 358 357 357 357 357 356 356 355 355 356 350 351 353 353 357 358 357 356 357 358 358 358
344 348 349 349 350 351 356 354 354 354 354 353 354 351 352 352 351 354 356 358 359 360 359 358 359 357 359 352 355 356 351 350 351 351 353 359 356 355 357 358 358 358 358
343 347 348 348 350 349 351 351 350 349 349 350 350 350 350 352 351 350 352 354 352 355 353 356 351 351 355 351 350 351 349 349 347 350 352 357 354 353 356 357 358 358 358
341 343 346 348 349 347 349 351 350 348 349 348 349 350 349 349 350 350 350 352 351 351 349 350 348 350 353 353 349 348 347 352 349 351 351 352 353 354 354 357 357 358 358
339 341 343 346 347 348 347 349 350 349 350 349 348 349 349 349 350 350 350 352 351 351 347 344 346 348 349 351 350 350 350 350 349 349 348 351 348 353 355 356 357 357 357
339 339 342 345 346 347 346 348 348 349 350 350 350 350 351 351 351 348 348 351 350 351 348 346 346 348 349 351 351 350 350 350 349 349 347 345 354 352 354 356 357 357 357
335 338 339 343 344 345 346 348 348 348 350 350 350 351 351 351 350 351 349 348 348 348 348 349 349 349 348 350 348 350 350 350 348 346 348 349 347 355 355 355 354 356 357
335 336 339 344 344 344 345 347 348 349 349 349 349 350 352 352 352 351 349 348 350 350 347 347 347 346 346 347 345 347 350 351 349 350 350 350 349 352 355 354 355 354 356
336 336 337 341 342 344 346 347 347 346 346 347 348 351 353 355 354 352 352 353 353 350 349 348 346 346 345 345 345 345 347 350 351 352 350 350 350 352 353 355 355 356 355
336 337 338 340 342 345 345 345 344 343 344 348 351 352 353 350 350 349 352 354 352 350 349 347 346 346 346 346 349 348 349 349 350 353 352 353 353 352 354 354 356 356 356
337 336 338 341 343 343 343 341 340 339 344 347 349 352 352 352 353 348 354 352 351 350 349 348 346 346 346 347 346 343 343 347 348 350 348 348 350 354 352 354 355 355 355
335 336 339 341 342 342 343 342 342 343 345 347 349 351 351 353 353 355 355 352 351 350 349 349 348 346 346 347 341 337 336 342 346 349 350 348 349 353 351 352 353 354 354
335 336 339 342 342 343 343 342 345 348 347 346 347 347 351 353 353 357 354 352 351 352 350 350 349 347 345 346 343 338 335 334 337 345 346 347 348 350 353 353 353 354 353
336 339 340 341 341 343 342 341 342 342 342 344 345 349 351 354 356 358 355 352 351 352 351 352 351 348 348 345 346 345 341 341 337 336 344 346 348 349 350 352 353 354 354
338 338 340 340 341 343 341 342 341 341 343 346 346 349 351 355 356 357 356 354 351 351 352 353 352 352 350 348 348 347 346 341 339 337 337 341 346 348 350 351 352 353 352
338 337 340 339 341 342 341 341 341 341 342 343 346 345 348 352 354 357 356 354 351 351 352 353 354 353 351 348 347 344 345 343 339 337 335 338 340 345 346 349 349 347 351
Wind_Speed
2 3 11 12 14 15 16 16 16 16 16 16 16 16 15 15 14 15 15 14 14 13 12 11 13 12 13 14 15 15 13 13 14 14 14 13 13 14 16 17 16 14 17
4 2 9 12 14 15 15 16 15 16 17 16 16 15 15 16 16 15 14 15 14 14 12 14 12 13 13 11 14 14 13 12 12 14 14 13 14 14 15 15 14 14 15
4 4 6 12 13 14 15 16 17 16 17 16 15 16 16 15 15 14 15 14 14 12 12 12 12 11 12 11 12 12 12 11 11 12 12 5 7 13 14 14 14 14 14
4 5 4 10 13 14 13 14 16 17 17 16 15 14 14 14 15 13 13 13 14 11 11 11 11 10 10 10 10 12 11 11 11 11 4 4 9 12 12 14 13 12 13
5 5 5 10 12 13 13 13 13 15 15 15 15 13 13 13 12 13 11 13 12 11 11 11 11 10 9 7 8 8 7 9 9 7 4 4 4 11 11 12 12 12 10
5 5 7 10 12 12 12 12 12 13 12 13 13 12 12 12 11 12 11 11 11 10 10 9 9 8 7 6 6 5 5 8 8 5 4 6 4 10 12 10 12 11 11
5 4 5 11 11 10 11 12 11 11 11 10 11 9 9 10 11 10 9 10 8 8 10 9 9 8 7 5 3 2 6 8 5 5 4 4 2 11 10 11 10 12 11
4 4 3 11 11 10 10 10 10 10 11 9 9 8 7 7 8 8 8 7 7 6 7 7 8 8 7 5 5 6 9 9 6 4 4 3 5 9 9 10 10 10 11
6 5 4 4 8 9 9 8 8 8 8 7 7 5 5 4 5 5 6 5 5 3 5 5 6 6 6 5 5 4 9 10 5 3 4 2 7 9 11 11 9 10 10
5 4 4 3 4 3 3 7 6 6 7 6 5 4 3 2 2 2 2 1 2 3 3 4 4 5 3 3 4 3 9 11 4 3 3 3 8 9 10 9 9 11 9
5 4 4 4 4 4 3 3 6 5 5 4 3 3 2 1 3 3 2 5 5 5 4 4 5 5 4 3 3 4 8 3 3 2 2 8 8 9 8 8 8 9 10
7 5 4 4 4 4 2 2 1 1 2 2 2 3 2 2 3 4 6 8 8 8 7 6 6 3 4 2 0 4 2 3 3 3 2 10 7 6 10 10 9 8 9
5 4 6 5 5 4 2 1 0 1 1 1 3 3 3 3 3 2 2 3 3 3 0 1 2 2 2 2 2 2 3 2 1 2 4 9 9 8 9 10 10 11 10
6 6 5 5 5 5 2 1 2 2 2 2 3 3 2 2 2 4 3 2 2 1 2 1 1 0 0 1 1 3 3 2 2 1 2 7 5 8 10 11 11 11 12
6 6 5 6 6 4 4 3 3 3 3 3 3 4 3 3 4 2 3 2 2 2 2 2 1 1 2 2 2 2 3 4 4 2 2 7 4 5 11 11 12 11 11
5 6 5 6 6 5 5 5 3 3 3 3 4 4 4 3 4 3 2 2 2 1 1 1 1 2 1 2 3 2 3 2 3 4 3 3 9 7 8 9 12 12 12
5 5 8 7 6 6 5 4 3 3 3 4 4 5 4 4 4 4 2 2 1 1 3 2 2 1 1 2 2 3 3 5 5 5 3 2 5 10 8 9 11 11 12
6 8 6 7 6 6 6 4 3 4 3 5 4 4 4 4 4 3 3 3 2 2 3 2 3 2 3 2 1 1 1 3 4 3 2 3 4 3 6 8 12 14 13
9 7 7 7 7 6 6 4 4 4 3 4 3 2 3 3 4 3 3 2 1 2 3 3 2 2 2 1 0 1 1 0 2 2 3 3 4 4 4 6 8 14 14
9 8 8 7 7 6 3 1 1 2 3 3 2 2 3 3 3 4 3 0 2 3 3 2 2 2 2 2 1 0 1 1 1 3 3 4 4 5 5 6 3 5 13
11 10 11 9 7 4 2 2 1 2 2 3 3 4 4 3 3 4 1 2 2 3 3 3 2 2 2 2 2 1 1 1 3 2 2 3 5 4 5 5 3 3 4
13 13 11 11 8 6 4 2 3 3 3 2 1 2 5 4 3 2 2 3 3 3 3 3 2 2 1 2 2 1 2 1 2 1 2 3 4 2 4 5 5 4 3
12 13 13 13 9 6 6 3 1 0 1 1 2 3 3 5 4 3 2 3 3 3 3 3 3 2 2 2 2 3 2 1 1 1 3 4 4 3 3 4 5 5 5
13 10 10 9 8 7 7 4 5 4 3 1 2 2 1 4 4 4 3 4 3 2 3 3 3 3 3 3 2 3 1 2 0 2 0 1 3 4 5 4 5 5 6
10 10 9 8 8 8 7 6 5 4 3 2 2 2 2 3 4 4 4 4 4 2 3 4 3 3 2 2 2 2 1 1 1 1 2 1 1 2 4 5 5 5 5
6 7 7 8 8 7 8 8 8 8 6 3 2 3 2 2 2 3 4 4 3 3 4 3 3 3 3 2 2 2 2 1 2 2 2 2 2 2 3 4 4 4 5
Wind_Direction
276 275 121 114 104 106 108 108 107 106 109 107 108 111 113 112 109 106 107 101 102 97 96 101 102 102 94 103 104 103 102 102 101 104 105 99 99 98 100 102 110 113 113
144 225 128 108 108 110 110 114 111 111 111 111 110 112 110 108 107 103 104 100 98 104 100 97 94 95 99 98 103 105 103 106 107 104 108 108 104 103 103 108 109 109 114
138 144 124 111 110 106 111 117 115 116 114 116 114 121 119 112 105 98 100 105 106 103 102 100 108 102 105 108 106 100 92 95 99 108 107 99 113 112 112 112 116 122 120
131 102 114 118 113 112 113 112 117 117 119 120 119 113 109 109 108 97 95 102 96 104 99 101 96 99 101 110 118 106 105 99 95 95 68 86 108 110 121 126 123 125 124
92 105 143 117 121 114 117 117 115 119 121 119 114 109 112 112 108 103 96 97 104 105 104 104 103 102 104 107 111 119 97 106 103 89 85 85 86 124 122 120 118 121 120
131 148 141 127 115 122 119 124 125 122 122 120 116 120 124 111 100 103 106 101 105 106 104 107 109 108 107 119 118 125 117 129 111 112 116 112 113 120 126 129 125 126 125
179 163 151 135 126 123 127 124 130 130 125 124 126 123 116 115 115 106 103 102 98 99 100 106 103 108 107 97 82 83 155 136 120 119 108 109 136 136 136 133 131 123 129
129 136 158 141 136 137 131 134 136 136 136 143 138 137 137 131 121 116 119 112 113 112 106 105 103 97 87 70 46 71 134 143 129 121 120 123 132 134 133 128 137 135 136
144 127 163 144 147 141 145 149 147 146 135 140 139 149 152 141 134 131 127 132 130 128 125 116 102 90 89 79 54 50 136 137 137 132 144 163 159 151 142 140 140 137 140
145 154 156 137 110 133 165 160 164 156 150 154 153 163 158 165 148 145 127 202 183 172 165 143 135 127 116 96 92 84 156 144 145 157 159 167 167 166 155 150 154 138 153
157 166 158 146 174 160 176 209 183 183 184 181 186 217 190 20 343 321 249 225 235 220 209 196 185 168 144 144 135 135 119 121 140 183 173 177 177 179 167 160 161 152 148
175 181 167 175 181 183 185 182 138 296 34 6 350 313 356 309 267 257 265 266 246 230 219 222 207 181 127 124 73 112 103 139 154 168 192 173 177 219 183 176 172 167 150
172 184 182 190 184 191 222 144 53 266 321 304 277 273 270 276 289 325 285 278 311 285 118 344 132 89 126 154 125 119 152 187 198 184 195 176 178 206 208 184 174 171 164
183 191 177 184 188 200 200 200 214 229 226 246 247 256 264 291 294 276 254 252 290 343 165 221 104 69 83 193 219 167 175 183 222 237 214 186 206 205 198 184 182 180 174
187 191 186 177 197 194 210 214 215 228 233 241 257 248 230 269 277 297 294 282 237 201 192 132 178 189 222 180 217 199 195 204 189 200 197 208 232 220 195 192 189 185 181
185 195 182 198 197 189 210 221 228 226 241 239 247 238 236 236 252 246 266 290 347 207 149 135 195 210 200 199 216 245 219 182 161 187 204 238 227 224 234 216 193 191 190
193 191 204 198 192 197 207 212 227 231 233 246 242 248 232 229 238 258 276 265 273 200 208 157 205 272 42 138 160 168 179 182 171 185 192 236 248 245 241 232 204 199 198
185 198 203 208 199 206 212 208 215 245 253 254 241 234 231 223 229 263 270 260 249 209 173 172 174 165 123 125 150 71 190 172 195 201 208 209 222 240 272 220 217 201 199
189 193 196 195 208 201 219 223 224 252 265 270 236 216 230 213 228 240 252 287 144 121 132 142 119 130 132 117 354 290 292 132 216 206 207 215 214 233 250 261 231 210 204
182 185 195 194 202 195 208 235 260 278 265 273 218 204 196 217 264 245 283 261 126 112 103 98 106 75 98 117 33 34 311 163 185 196 214 217 233 240 237 226 250 204 216
189 185 189 184 196 150 157 186 239 239 231 260 225 212 207 223 245 234 173 143 127 103 114 109 93 92 74 123 126 9 324 233 200 212 195 219 241 231 217 209 201 199 215
187 196 189 199 181 182 175 167 157 196 213 241 288 211 215 219 197 217 189 172 160 119 126 149 136 115 104 158 132 119 30 22 21 226 212 221 224 229 216 195 198 204 219
190 194 193 193 180 179 174 130 109 280 78 22 260 255 212 196 195 207 183 172 162 143 157 167 155 146 142 180 121 135 98 14 300 185 200 192 192 207 199 194 197 204 213
203 193 194 178 175 184 167 160 176 191 178 244 237 242 203 197 210 206 191 193 167 163 159 163 149 163 162 160 198 181 133 155 188 344 159 205 205 208 196 194 202 204 204
180 187 183 170 178 187 174 180 182 205 205 171 260 287 208 189 214 191 196 200 187 191 162 159 163 168 162 160 174 142 125 113 106 150 299 290 254 223 214 200 194 188 192
182 169 162 171 197 187 176 188 193 208 203 193 224 243 204 209 222 215 203 206 188 193 183 180 181 179 169 166 131 116 172 161 192 175 234 260 248 244 248 210 197 185 175